| time (UTC) | temp F | wind direction | speed knots | gust knots | rain 1hr in | rain 24hr in | rain mn in | humidity % | barometer mb |
| 20260504151002 | 64 | 9 | 9.6 | 20.0 | 0.00 | 0.00 | 0.00 | 70 | 1019.6 |
| 20260504150503 | 64 | 7 | 9.6 | 20.0 | 0.00 | 0.00 | 0.00 | 71 | 1019.6 |
| 20260504141003 | 65 | 12 | 11.3 | 20.0 | 0.00 | 0.00 | 0.00 | 68 | 1020.0 |
| 20260504140503 | 65 | 12 | 9.6 | 20.0 | 0.00 | 0.00 | 0.00 | 67 | 1020.0 |
| 20260504130503 | 65 | 15 | 10.4 | 19.1 | 0.00 | 0.00 | 0.00 | 69 | 1020.5 |
| 20260504110503 | 66 | 359 | 7.8 | 15.6 | 0.00 | 0.00 | 0.00 | 61 | 1020.8 |
| 20260504100503 | 65 | 360 | 8.7 | 15.6 | 0.00 | 0.00 | 0.00 | 59 | 1021.8 |
| 20260504082003 | 61 | 352 | 8.7 | 19.1 | 0.00 | 0.00 | 0.00 | 69 | 1021.8 |
| 20260504081503 | 61 | 353 | 9.6 | 19.1 | 0.00 | 0.00 | 0.00 | 69 | 1021.7 |
| 20260504081001 | 61 | 356 | 10.4 | 19.1 | 0.00 | 0.00 | 0.00 | 69 | 1021.5 |
| 20260504080501 | 61 | 354 | 9.6 | 16.5 | 0.00 | 0.00 | 0.00 | 71 | 1021.5 |
| 20260504050502 | 54 | 343 | 3.5 | 7.0 | 0.00 | 0.00 | 0.00 | 85 | 1021.0 |
| 20260504050002 | 54 | 346 | 2.6 | 6.1 | 0.00 | 0.00 | 0.00 | 85 | 1020.9 |
| 20260504045501 | 54 | 354 | 1.7 | 5.2 | 0.00 | 0.00 | 0.00 | 85 | 1020.9 |
| 20260504045001 | 54 | 354 | 2.6 | 5.2 | 0.00 | 0.00 | 0.00 | 85 | 1021.0 |
| 20260504044502 | 54 | 356 | 0.0 | 3.5 | 0.00 | 0.00 | 0.00 | 85 | 1020.8 |
| 20260504044002 | 52 | 32 | 0.0 | 7.0 | 0.00 | 0.00 | 0.00 | 79 | 1020.9 |
| 20260504043503 | 52 | 32 | 0.0 | 7.0 | 0.00 | 0.00 | 0.00 | 79 | 1020.7 |
| 20260504043002 | 52 | 32 | 0.0 | 7.0 | 0.00 | 0.00 | 0.00 | 79 | 1020.7 |
| 20260504042502 | 52 | 32 | 0.0 | 7.0 | 0.00 | 0.00 | 0.00 | 79 | 1020.7 |
| 20260504042002 | 52 | 32 | 0.0 | 7.0 | 0.00 | 0.00 | 0.00 | 79 | 1020.7 |
| 20260504041501 | 52 | 32 | 0.0 | 7.0 | 0.00 | 0.00 | 0.00 | 79 | 1020.7 |
| 20260504041001 | 52 | 32 | 0.0 | 7.0 | 0.00 | 0.00 | 0.00 | 79 | 1020.6 |
| 20260504040501 | 52 | 32 | 0.0 | 7.0 | 0.00 | 0.00 | 0.00 | 79 | 1020.5 |
| 20260504040001 | 52 | 32 | 0.0 | 7.0 | 0.00 | 0.00 | 0.00 | 79 | 1020.5 |
| 20260504035501 | 52 | 357 | 0.0 | 5.2 | 0.00 | 0.00 | 0.00 | 79 | 1020.6 |
| 20260504035001 | 52 | 348 | 3.5 | 7.0 | 0.00 | 0.00 | 0.00 | 79 | 1020.6 |
| 20260504034501 | 53 | 347 | 3.5 | 7.8 | 0.00 | 0.00 | 0.00 | 79 | 1020.6 |
| 20260504034001 | 53 | 350 | 3.5 | 7.8 | 0.00 | 0.00 | 0.00 | 80 | 1020.4 |
| 20260504033501 | 53 | 350 | 3.5 | 6.1 | 0.00 | 0.00 | 0.00 | 80 | 1020.5 |
| 20260504033001 | 53 | 348 | 3.5 | 6.1 | 0.00 | 0.00 | 0.00 | 80 | 1020.5 |
| 20260504032502 | 53 | 348 | 3.5 | 7.0 | 0.00 | 0.00 | 0.00 | 81 | 1020.5 |
| 20260504032001 | 53 | 347 | 3.5 | 7.8 | 0.00 | 0.00 | 0.00 | 80 | 1020.5 |
| 20260504031501 | 53 | 345 | 3.5 | 7.8 | 0.00 | 0.00 | 0.00 | 80 | 1020.6 |
| 20260504031001 | 53 | 346 | 2.6 | 6.1 | 0.00 | 0.00 | 0.00 | 81 | 1020.6 |
| 20260504030501 | 53 | 360 | 1.7 | 5.2 | 0.00 | 0.00 | 0.00 | 82 | 1020.6 |
| 20260504030001 | 53 | 359 | 1.7 | 5.2 | 0.00 | 0.00 | 0.00 | 82 | 1020.8 |
| 20260504025502 | 53 | 358 | 1.7 | 4.3 | 0.00 | 0.00 | 0.00 | 82 | 1020.7 |
| 20260504025002 | 53 | 358 | 2.6 | 6.1 | 0.00 | 0.00 | 0.00 | 83 | 1020.8 |
| 20260504024502 | 54 | 360 | 3.5 | 6.1 | 0.00 | 0.00 | 0.00 | 83 | 1020.7 |
| 20260504024002 | 54 | 1 | 3.5 | 6.1 | 0.00 | 0.00 | 0.00 | 83 | 1020.7 |
| 20260504023501 | 53 | 355 | 3.5 | 7.0 | 0.00 | 0.00 | 0.00 | 84 | 1020.7 |
| 20260504023001 | 53 | 358 | 3.5 | 7.0 | 0.00 | 0.00 | 0.00 | 84 | 1020.7 |
| 20260504022501 | 53 | 3 | 2.6 | 5.2 | 0.00 | 0.00 | 0.00 | 85 | 1020.8 |
| 20260504022002 | 53 | 1 | 2.6 | 5.2 | 0.00 | 0.00 | 0.00 | 85 | 1020.8 |
| 20260504021502 | 53 | 5 | 2.6 | 5.2 | 0.00 | 0.00 | 0.00 | 85 | 1020.8 |
| 20260504021002 | 53 | 18 | 2.6 | 4.3 | 0.00 | 0.00 | 0.00 | 85 | 1020.7 |
| 20260504020502 | 53 | 17 | 2.6 | 5.2 | 0.00 | 0.00 | 0.00 | 85 | 1020.9 |
| 20260504020002 | 53 | 23 | 1.7 | 5.2 | 0.00 | 0.00 | 0.00 | 85 | 1020.9 |
| 20260504015502 | 53 | 19 | 1.7 | 3.5 | 0.00 | 0.00 | 0.00 | 85 | 1020.8 |
| 20260504015001 | 53 | 4 | 1.7 | 3.5 | 0.00 | 0.00 | 0.00 | 84 | 1020.7 |
| 20260504014502 | 53 | 24 | 0.9 | 3.5 | 0.00 | 0.00 | 0.00 | 84 | 1020.6 |
| 20260504014002 | 53 | 36 | 1.7 | 3.5 | 0.00 | 0.00 | 0.00 | 84 | 1020.7 |
| 20260504013501 | 53 | 32 | 1.7 | 2.6 | 0.00 | 0.00 | 0.00 | 84 | 1020.7 |
| 20260504013001 | 54 | 24 | 1.7 | 3.5 | 0.00 | 0.00 | 0.00 | 83 | 1020.6 |
| 20260504012502 | 54 | 9 | 0.9 | 3.5 | 0.00 | 0.00 | 0.00 | 84 | 1020.5 |
| 20260504012002 | 54 | 350 | 0.9 | 4.3 | 0.00 | 0.00 | 0.00 | 84 | 1020.5 |
| 20260504011502 | 54 | 351 | 1.7 | 4.3 | 0.00 | 0.00 | 0.00 | 83 | 1020.6 |
| 20260504011002 | 54 | 348 | 1.7 | 5.2 | 0.00 | 0.00 | 0.00 | 83 | 1020.5 |
| 20260504010501 | 54 | 341 | 2.6 | 5.2 | 0.00 | 0.00 | 0.00 | 83 | 1020.5 |
| 20260504010002 | 54 | 341 | 1.7 | 4.3 | 0.00 | 0.00 | 0.00 | 83 | 1020.5 |
| 20260504005502 | 54 | 347 | 1.7 | 4.3 | 0.00 | 0.00 | 0.00 | 84 | 1020.5 |
| 20260504005002 | 54 | 349 | 1.7 | 4.3 | 0.00 | 0.00 | 0.00 | 84 | 1020.4 |
| 20260504004502 | 54 | 347 | 0.9 | 3.5 | 0.00 | 0.00 | 0.00 | 84 | 1020.4 |
| 20260504004002 | 54 | 347 | 0.9 | 3.5 | 0.00 | 0.00 | 0.00 | 84 | 1020.6 |
| 20260504003502 | 54 | 348 | 1.7 | 3.5 | 0.00 | 0.00 | 0.00 | 83 | 1020.4 |
| 20260504003002 | 54 | 360 | 1.7 | 5.2 | 0.00 | 0.00 | 0.00 | 83 | 1020.5 |
| 20260504002502 | 54 | 8 | 2.6 | 5.2 | 0.00 | 0.00 | 0.00 | 83 | 1020.4 |
| 20260504002002 | 54 | 360 | 1.7 | 6.1 | 0.00 | 0.00 | 0.00 | 84 | 1020.5 |
| 20260504001501 | 55 | 345 | 1.7 | 6.1 | 0.00 | 0.00 | 0.00 | 85 | 1020.6 |
| 20260504001002 | 55 | 335 | 2.6 | 5.2 | 0.00 | 0.00 | 0.00 | 85 | 1020.6 |
| 20260504000502 | 55 | 335 | 2.6 | 7.0 | 0.00 | 0.00 | 0.00 | 85 | 1020.7 |
| 20260504000002 | 55 | 339 | 2.6 | 7.0 | 0.00 | 0.00 | 0.00 | 85 | 1020.8 |
| 20260503235502 | 55 | 339 | 2.6 | 4.3 | 0.00 | 0.00 | 0.00 | 85 | 1020.9 |
| 20260503235002 | 55 | 344 | 1.7 | 4.3 | 0.00 | 0.00 | 0.00 | 85 | 1020.8 |
| 20260503234502 | 55 | 348 | 1.7 | 4.3 | 0.00 | 0.00 | 0.00 | 85 | 1020.9 |
| 20260503234001 | 55 | 355 | 1.7 | 4.3 | 0.00 | 0.00 | 0.00 | 85 | 1020.9 |
| 20260503233502 | 54 | 9 | 0.9 | 3.5 | 0.00 | 0.00 | 0.00 | 84 | 1021.1 |
| 20260503233001 | 54 | 359 | 1.7 | 3.5 | 0.00 | 0.00 | 0.00 | 84 | 1021.2 |
| 20260503232502 | 54 | 11 | 1.7 | 3.5 | 0.00 | 0.00 | 0.00 | 84 | 1021.2 |
| 20260503232002 | 54 | 20 | 2.6 | 3.5 | 0.00 | 0.00 | 0.00 | 84 | 1021.2 |
| 20260503231502 | 54 | 15 | 2.6 | 3.5 | 0.00 | 0.00 | 0.00 | 84 | 1021.2 |
| 20260503231002 | 54 | 14 | 2.6 | 4.3 | 0.00 | 0.00 | 0.00 | 84 | 1021.3 |
| 20260503230502 | 54 | 11 | 2.6 | 4.3 | 0.00 | 0.00 | 0.00 | 83 | 1021.3 |
| 20260503230002 | 54 | 21 | 1.7 | 3.5 | 0.00 | 0.00 | 0.00 | 83 | 1021.3 |
| 20260503225502 | 54 | 37 | 1.7 | 2.6 | 0.00 | 0.00 | 0.00 | 82 | 1021.3 |
| 20260503225002 | 54 | 34 | 1.7 | 3.5 | 0.00 | 0.00 | 0.00 | 82 | 1021.3 |
| 20260503224502 | 54 | 30 | 1.7 | 3.5 | 0.00 | 0.00 | 0.00 | 82 | 1021.4 |
| 20260503224002 | 54 | 18 | 1.7 | 3.5 | 0.00 | 0.00 | 0.00 | 82 | 1021.6 |
| 20260503223502 | 54 | 344 | 1.7 | 3.5 | 0.00 | 0.00 | 0.00 | 82 | 1021.4 |
| 20260503223002 | 54 | 341 | 1.7 | 3.5 | 0.00 | 0.00 | 0.00 | 81 | 1021.4 |
| 20260503222502 | 54 | 359 | 1.7 | 4.3 | 0.00 | 0.00 | 0.00 | 81 | 1021.5 |
| 20260503222002 | 55 | 12 | 1.7 | 4.3 | 0.00 | 0.00 | 0.00 | 81 | 1021.5 |
| 20260503221502 | 55 | 10 | 1.7 | 4.3 | 0.00 | 0.00 | 0.00 | 81 | 1021.5 |
| 20260503221002 | 55 | 357 | 1.7 | 5.2 | 0.00 | 0.00 | 0.00 | 81 | 1021.5 |
| 20260503220502 | 55 | 343 | 2.6 | 5.2 | 0.00 | 0.00 | 0.00 | 81 | 1021.5 |
| 20260503220003 | 54 | 347 | 1.7 | 5.2 | 0.00 | 0.00 | 0.00 | 82 | 1021.5 |
| 20260503215502 | 54 | 355 | 1.7 | 5.2 | 0.00 | 0.00 | 0.00 | 82 | 1021.5 |
| 20260503215002 | 55 | 2 | 1.7 | 5.2 | 0.00 | 0.00 | 0.00 | 82 | 1021.5 |
| 20260503214502 | 55 | 358 | 1.7 | 5.2 | 0.00 | 0.00 | 0.00 | 82 | 1021.6 |
| 20260503214002 | 55 | 349 | 2.6 | 5.2 | 0.00 | 0.00 | 0.00 | 82 | 1021.5 |
| 20260503213502 | 54 | 350 | 2.6 | 5.2 | 0.00 | 0.00 | 0.00 | 82 | 1021.5 |
| 20260503213002 | 54 | 349 | 1.7 | 4.3 | 0.00 | 0.00 | 0.00 | 83 | 1021.5 |
| 20260503212502 | 54 | 347 | 1.7 | 4.3 | 0.00 | 0.00 | 0.00 | 83 | 1021.5 |
| 20260503212002 | 54 | 355 | 1.7 | 4.3 | 0.00 | 0.00 | 0.00 | 84 | 1021.6 |
| 20260503211502 | 54 | 1 | 0.9 | 3.5 | 0.00 | 0.00 | 0.00 | 84 | 1021.5 |
| 20260503211002 | 54 | 6 | 0.9 | 4.3 | 0.00 | 0.00 | 0.00 | 84 | 1021.6 |
| 20260503210502 | 54 | 2 | 1.7 | 4.3 | 0.00 | 0.00 | 0.00 | 84 | 1021.6 |
| 20260503210002 | 54 | 350 | 1.7 | 4.3 | 0.00 | 0.00 | 0.00 | 84 | 1021.5 |
| 20260503205502 | 54 | 346 | 1.7 | 4.3 | 0.00 | 0.00 | 0.00 | 84 | 1021.5 |
| 20260503205002 | 54 | 354 | 0.9 | 2.6 | 0.00 | 0.00 | 0.00 | 84 | 1021.6 |
| 20260503204502 | 55 | 355 | 0.9 | 2.6 | 0.00 | 0.00 | 0.00 | 84 | 1021.5 |
| 20260503204002 | 55 | 348 | 0.9 | 2.6 | 0.00 | 0.00 | 0.00 | 85 | 1021.5 |
| 20260503203502 | 55 | 348 | 0.0 | 2.6 | 0.00 | 0.00 | 0.00 | 85 | 1021.6 |
| 20260503203002 | 56 | 345 | 0.9 | 2.6 | 0.00 | 0.00 | 0.00 | 85 | 1021.4 |
| 20260503202502 | 56 | 352 | 1.7 | 3.5 | 0.00 | 0.00 | 0.00 | 85 | 1021.3 |
| 20260503202002 | 56 | 351 | 0.9 | 3.5 | 0.00 | 0.00 | 0.00 | 85 | 1021.4 |
| 20260503201502 | 56 | 338 | 0.9 | 2.6 | 0.00 | 0.00 | 0.00 | 85 | 1021.3 |
| 20260503201002 | 56 | 337 | 0.9 | 2.6 | 0.00 | 0.00 | 0.00 | 85 | 1021.3 |
| 20260503200502 | 56 | 342 | 0.0 | 1.7 | 0.00 | 0.00 | 0.00 | 85 | 1021.3 |
| 20260503200002 | 56 | 339 | 0.9 | 1.7 | 0.00 | 0.00 | 0.00 | 85 | 1021.3 |
| 20260503195502 | 56 | 341 | 0.9 | 3.5 | 0.00 | 0.00 | 0.00 | 85 | 1021.3 |
| 20260503195002 | 56 | 345 | 1.7 | 3.5 | 0.00 | 0.00 | 0.00 | 85 | 1021.2 |
| 20260503194502 | 56 | 346 | 1.7 | 3.5 | 0.00 | 0.00 | 0.00 | 85 | 1021.3 |
| 20260503194002 | 56 | 349 | 1.7 | 3.5 | 0.00 | 0.00 | 0.00 | 85 | 1021.2 |
| 20260503193502 | 56 | 359 | 1.7 | 3.5 | 0.00 | 0.00 | 0.00 | 85 | 1021.3 |
| 20260503193002 | 56 | 5 | 2.6 | 4.3 | 0.00 | 0.00 | 0.00 | 85 | 1021.3 |
| 20260503192502 | 56 | 6 | 2.6 | 4.3 | 0.00 | 0.00 | 0.00 | 85 | 1021.3 |
| 20260503192002 | 56 | 2 | 2.6 | 4.3 | 0.00 | 0.00 | 0.00 | 85 | 1021.2 |
| 20260503191502 | 56 | 2 | 2.6 | 4.3 | 0.00 | 0.00 | 0.00 | 85 | 1021.3 |
| 20260503191002 | 56 | 11 | 2.6 | 4.3 | 0.00 | 0.00 | 0.00 | 85 | 1021.2 |
| 20260503190503 | 56 | 17 | 2.6 | 5.2 | 0.00 | 0.00 | 0.00 | 85 | 1021.2 |
| 20260503190002 | 57 | 16 | 2.6 | 5.2 | 0.00 | 0.00 | 0.00 | 84 | 1021.1 |
| 20260503185503 | 57 | 8 | 2.6 | 4.3 | 0.00 | 0.00 | 0.00 | 84 | 1021.1 |
| 20260503185002 | 57 | 6 | 2.6 | 4.3 | 0.00 | 0.00 | 0.00 | 84 | 1021.2 |
| 20260503184502 | 57 | 13 | 2.6 | 4.3 | 0.00 | 0.00 | 0.00 | 83 | 1021.0 |
| 20260503184002 | 57 | 18 | 2.6 | 5.2 | 0.00 | 0.00 | 0.00 | 83 | 1021.1 |
| 20260503183502 | 57 | 15 | 2.6 | 6.1 | 0.00 | 0.00 | 0.00 | 83 | 1021.0 |
| 20260503183002 | 57 | 9 | 2.6 | 6.1 | 0.00 | 0.00 | 0.00 | 83 | 1021.0 |
| 20260503182502 | 57 | 14 | 2.6 | 5.2 | 0.00 | 0.00 | 0.00 | 82 | 1020.9 |
| 20260503182002 | 57 | 12 | 2.6 | 5.2 | 0.00 | 0.00 | 0.00 | 82 | 1020.8 |
| 20260503181503 | 58 | 13 | 2.6 | 5.2 | 0.00 | 0.00 | 0.00 | 82 | 1020.9 |
| 20260503181002 | 58 | 14 | 2.6 | 6.1 | 0.00 | 0.00 | 0.00 | 81 | 1021.0 |
| 20260503180503 | 58 | 4 | 2.6 | 6.1 | 0.00 | 0.00 | 0.00 | 80 | 1020.8 |
| 20260503180002 | 58 | 10 | 3.5 | 6.1 | 0.00 | 0.00 | 0.00 | 79 | 1020.8 |
| 20260503175502 | 59 | 22 | 2.6 | 6.1 | 0.00 | 0.00 | 0.00 | 78 | 1020.9 |
| 20260503175002 | 59 | 19 | 2.6 | 5.2 | 0.00 | 0.00 | 0.00 | 77 | 1020.8 |
| 20260503174502 | 59 | 24 | 2.6 | 6.1 | 0.00 | 0.00 | 0.00 | 76 | 1020.9 |
| 20260503174002 | 60 | 39 | 2.6 | 6.1 | 0.00 | 0.00 | 0.00 | 76 | 1021.0 |
| 20260503173502 | 60 | 36 | 3.5 | 7.8 | 0.00 | 0.00 | 0.00 | 75 | 1020.9 |
| 20260503173002 | 60 | 36 | 4.3 | 7.8 | 0.00 | 0.00 | 0.00 | 73 | 1021.0 |
| 20260503172502 | 59 | 41 | 4.3 | 6.1 | 0.00 | 0.00 | 0.00 | 72 | 1020.8 |
| 20260503172002 | 59 | 37 | 3.5 | 6.1 | 0.00 | 0.00 | 0.00 | 70 | 1020.8 |
| 20260503171502 | 60 | 38 | 4.3 | 7.0 | 0.00 | 0.00 | 0.00 | 68 | 1020.8 |
| 20260503171002 | 60 | 37 | 4.3 | 7.8 | 0.00 | 0.00 | 0.00 | 66 | 1020.7 |
| 20260503170502 | 60 | 40 | 4.3 | 7.8 | 0.00 | 0.00 | 0.00 | 65 | 1020.8 |